This is the latest recevied weather packets stored in our database for station/object DK6GC-10. If no packets are shown the sender has not sent any weather packets the latest 10 day(s).
| Time | Temp. | Humidity | Pressure | Rain* | Wind** | Luminosity | Snow |
|---|---|---|---|---|---|---|---|
| 1788002119 | 26.11° C | 45% | 1017.4 hPa | - | - | - | - |
| 1788001219 | 25° C | 49% | 1017.6 hPa | - | - | - | - |
| 1788000319 | 24.44° C | 49% | 1017.7 hPa | - | - | - | - |
| 1787999419 | 25° C | 47% | 1017.7 hPa | - | - | - | - |
| 1787998519 | 25° C | 48% | 1017.8 hPa | - | - | - | - |
| 1787997619 | 25.56° C | 49% | 1017.8 hPa | - | - | - | - |
| 1787996719 | 24.44° C | 50% | 1018 hPa | - | - | - | - |
| 1787995818 | 25° C | 50% | 1018.2 hPa | - | - | - | - |
| 1787994918 | 24.44° C | 53% | 1018.1 hPa | - | - | - | - |
| 1787994018 | 23.89° C | 56% | 1018.2 hPa | - | - | - | - |
| 1787993118 | 23.33° C | 57% | 1018.3 hPa | - | - | - | - |
| 1787992218 | 22.78° C | 58% | 1018.2 hPa | - | - | - | - |
| 1787991317 | 22.78° C | 60% | 1018.3 hPa | - | - | - | - |
| 1787990428 | 22.22° C | 60% | 1018.3 hPa | - | - | - | - |
| 1787989517 | 21.67° C | 61% | 1018.5 hPa | - | - | - | - |
| 1787988617 | 21.67° C | 65% | 1018.5 hPa | - | - | - | - |
| 1787987717 | 21.11° C | 64% | 1018.4 hPa | - | - | - | - |
| 1787986817 | 20.56° C | 64% | 1018.4 hPa | - | - | - | - |
| 1787985916 | 19.44° C | 67% | 1018.4 hPa | - | - | - | - |
| 1787985016 | 21.67° C | 59% | 1018.4 hPa | - | - | - | - |
| 1787984116 | 20° C | 65% | 1018.2 hPa | - | - | - | - |
| 1787983221 | 18.33° C | 74% | 1018.3 hPa | - | - | - | - |
| 1787982320 | 17.78° C | 78% | 1018.3 hPa | - | - | - | - |
| 1787981420 | 17.22° C | 83% | 1018.3 hPa | - | - | - | - |
| 1787980521 | 16.67° C | 88% | 1018.2 hPa | - | - | - | - |
* Rain since midnight (hover to see other rain measurements)
** Current wind speed in m/s (hover to see current wind gust speed)